Showing default

OPS 4682 (SNAPSHOT), 1314

Orbit data source: Space-Track

OPS 4682 (SNAPSHOT), 1314 is an American payload satellite in LEO that was launched on Sat, 03 Apr 1965 UTC via an ATLAS SLV-3 AGENA D launch vehicle from the Air Force Western Test Range (AFWTR). Payload-class satellites include a variety of spacecraft equipped with specific instruments for various scientific and technological missions. These include communications satellites like Starlink; space stations such as the ISS; scientific satellites like the Hubble; Earth observation satellites from companies like Planet Labs, Umbra, and HawkEye 360; GPS; miniature CubeSats for education and research; and military/defense satellites.

Loading next visibility...
Identifier
1314, 1965-027A
Orbit
LEO
Country
Flag of USUS
Related business
Manufacturer
RCA/East Windsor
Mission
Spacecraft
Bus & Motor
SNAP 10 REACTOR, Unknown motor
Mass
2,386 kg wet, 422 kg dry
Launch date (UTC)
1965-04-03 (61 years ago)
Launch vehicle
ATLAS SLV-3 AGENA D
Launch site
Air Force Western Test Range (AFWTR)
Object type
Payload
Rocket body
Debris
Shape & HBR
Unknown shape, 2.3 m
Radar Cross Section
Large (>1 m²)

Expand to show TLE details & history
Last TLE update: 20 hours ago

TLE from 20 hours ago
0 OPS 4682 (SNAPSHOT)
1 01314U 65027A   26105.65893950  .00000024  00000-0  59617-4 0  9996
2 01314  90.2458   4.8834 0032022  93.7427 325.3441 12.91803939622958
Epoch: 2026-04-15T15:48Z
TLE epoch observation values (Epoch: 2026-04-15T15:48:52.372Z)
Latitude
58.96507°
Longitude
-76.55896°
Altitude
1,284.225 km
Speed
7.229 km/s
True Right ascension
00h 17m 54s
True Declination
58° 49' 24"
Sunlit
Object was in daylight at epoch
Visualization orbit readout
Latitude
Unknown
Longitude
Unknown
Altitude
Unknown
Speed
Unknown
Apparent Right ascension
Unknown
Apparent Declination
Unknown
Sunlit
N/A
Visualization observer readout
Local Sidereal Time
18:05:37
Azimuth
Unknown
Elevation
Unknown
Doppler factor
Unknown
Orbital elements
Apogee altitude
1,316.068 km
Perigee altitude
1,266.948 km
Semi-major axis
7,669.645 km
Eccentricity
0.0032
Inclination
90.2458°
RAAN
4.8834°
Arg. of periapsis
93.7427°
True anomaly
325.13475°
Mean anomaly
325.3441°
Eccentric anomaly
325.23949°
Mean motion
3.23132 °/min
Orbital period
111.41 mins
BSTAR
0.000059617
Loading maneuver chart data...
Computing Atmospheric mass density...
Loading historical data...
Loading historical data...
Loading historical data...
Loading historical data...
Loading historical data...
Loading historical data...
Loading historical data...

Documentation

Showing up to 5 results
|